Monroe, NC

4:06 AM EST on February 21, 2017 (GMT -0500)
Monroe

Weather History for KEQY - January, 2014

Change the Weather History Date:

Monday, January 20, 2014

  Actual Average (KCLT) Record (KCLT)
Temperature  
Mean Temperature 50 °F -  
Max Temperature 64 °F 49 °F 71 °F (1951)
Min Temperature 35 °F 28 °F -2 °F (1985)
Degree Days  
Heating Degree Days 16    
Moisture  
Dew Point 26 °F    
Average Humidity 45    
Maximum Humidity 70    
Minimum Humidity 23    
Precipitation  
Precipitation 0.00 in - - ()
Sea Level Pressure  
Sea Level Pressure 29.91 in    
Wind  
Wind Speed 9 mph (SW)    
Max Wind Speed 16 mph    
Max Gust Speed -    
Visibility 10 miles    
Events      
Averages and records for this station are not official NWS values.
T = Trace of Precipitation, MM = Missing Value Source: NWS Daily Summary

Daily Weather History Graph

Daily Weather History Graph

Search for Another Location

Airport or City:

Trip Planner

Search our weather history database for the weather conditions in past years. The results will help you decide how hot, cold, wet, or windy it might be!

Date:

Astronomy

Jan. 20, 2014 Rise Set
Actual Time 7:28 AM EST 5:39 PM EST
Civil Twilight 7:01 AM EST 6:06 PM EST
Nautical Twilight 6:30 AM EST 6:37 PM EST
Astronomical Twilight 6:00 AM EST 7:07 PM EST
Moon 10:00 PM EST (1/20) 9:38 AM EST (1/20)
Length of Visible Light 11h 05m
Length of Day
10h 10m
Waning Gibbous, 83% of the Moon is Illuminated
Jan 20
Waning Gibbous
Jan 24
Last Quarter
Jan 30
New
Feb 6
First Quarter
Feb 14
Full

Hourly Weather History & Observations

Time (EST) Temp. Windchill Dew Point Humidity Pressure Visibility Wind Dir Wind Speed Gust Speed Precip Events Conditions
12:53 AM 37.9 °F 32.7 °F 26.1 °F 62% 29.96 in 10.0 mi WSW 6.9 mph - N/A   Clear
1:53 AM 37.9 °F 32.1 °F 27.0 °F 65% 29.97 in 10.0 mi SW 8.1 mph - N/A   Clear
2:53 AM 37.0 °F 31.6 °F 26.1 °F 65% 29.97 in 10.0 mi WSW 6.9 mph - N/A   Clear
3:53 AM 37.0 °F 30.4 °F 26.1 °F 65% 29.96 in 10.0 mi WSW 9.2 mph - N/A   Clear
4:53 AM 37.0 °F 28.5 °F 26.1 °F 65% 29.94 in 10.0 mi SW 13.8 mph - N/A   Clear
5:53 AM 36.0 °F 28.0 °F 26.1 °F 67% 29.94 in 10.0 mi WSW 11.5 mph - N/A   Clear
6:53 AM 36.0 °F 28.0 °F 26.1 °F 67% 29.94 in 10.0 mi WSW 11.5 mph - N/A   Clear
7:53 AM 35.1 °F 26.9 °F 26.1 °F 70% 29.96 in 10.0 mi WSW 11.5 mph - N/A   Clear
8:53 AM 39.0 °F 31.8 °F 27.0 °F 62% 29.96 in 10.0 mi WSW 11.5 mph - N/A   Clear
9:53 AM 43.0 °F 36.0 °F 27.0 °F 53% 29.96 in 10.0 mi WSW 13.8 mph - N/A   Clear
10:53 AM 50.0 °F - 26.1 °F 39% 29.95 in 10.0 mi WSW 12.7 mph - N/A   Clear
11:53 AM 55.0 °F - 24.1 °F 30% 29.92 in 10.0 mi WSW 11.5 mph - N/A   Clear
12:53 PM 59.0 °F - 23.0 °F 25% 29.88 in 10.0 mi WSW 15.0 mph - N/A   Clear
1:53 PM 62.1 °F - 24.1 °F 23% 29.86 in 10.0 mi SW 16.1 mph - N/A   Clear
2:53 PM 64.0 °F - 25.0 °F 23% 29.85 in 10.0 mi WSW 13.8 mph - N/A   Clear
3:53 PM 64.0 °F - 25.0 °F 23% 29.85 in 10.0 mi WSW 11.5 mph - N/A   Clear
4:53 PM 63.0 °F - 26.1 °F 25% 29.86 in 10.0 mi WSW 9.2 mph - N/A   Clear
5:53 PM 59.0 °F - 26.1 °F 28% 29.88 in 10.0 mi SW 4.6 mph - N/A   Clear
6:53 PM 55.9 °F - 26.1 °F 32% 29.89 in 10.0 mi SSW 4.6 mph - N/A   Clear
7:53 PM 55.0 °F - 26.1 °F 33% 29.90 in 10.0 mi SSW 5.8 mph - N/A   Clear
8:53 PM 52.0 °F - 27.0 °F 38% 29.90 in 10.0 mi SSW 5.8 mph - N/A   Clear
9:53 PM 51.1 °F - 25.0 °F 36% 29.88 in 10.0 mi SSW 4.6 mph - N/A   Clear
10:53 PM 50.0 °F - 25.0 °F 38% 29.86 in 10.0 mi SW 8.1 mph - N/A   Clear
11:53 PM 48.9 °F - 24.1 °F 38% 29.84 in 10.0 mi SSW 6.9 mph - N/A   Clear